User: anonymous   Login
Location: Columbia
(38.9520°N, 92.3340°W)
Time: 11:22:33
(UTC-05:00)
Language:

Iridium 52 - Orbit

View from above orbital plane
View from above orbital plane
View from above satellite
View from above satellite

Ground track
Ground track

The orbit data is extracted from the following two-line orbital elements,

1 25169U 98010A   14303.43754336  .00000712  00000-0  24699-3 0  7415
2 25169 086.4002 031.9501 0002286 109.8767 341.9987 14.34219508874074
Epoch (UTC): 30 October 2014 10:30:03
Eccentricity: 0.0002286
inclination: 86.4002°
perigee height: 776 km
apogee height: 779 km
right ascension of ascending node: 31.9501°
argument of perigee: 109.8767°
revolutions per day: 14.34219508
mean anomaly at epoch: 341.9987°
orbit number at epoch: 87407

The dashed part of the orbit path shows where the satellite is in the earth's shadow,  

DLR